Year,Month,Day,Hour,Minute,Value (Times are PST for temperature in C)
2006,10,05,00,00,12.70
2006,10,05,00,01,12.70
2006,10,05,00,02,12.60
2006,10,05,00,03,12.60
2006,10,05,00,04,12.60
2006,10,05,00,05,12.60
2006,10,05,00,06,12.60
2006,10,05,00,07,12.60
2006,10,05,00,08,12.50
2006,10,05,00,09,12.40
2006,10,05,00,10,12.30
2006,10,05,00,11,12.30
2006,10,05,00,12,12.20
2006,10,05,00,13,12.20
2006,10,05,00,14,12.20
2006,10,05,00,15,12.20
2006,10,05,00,16,12.20
2006,10,05,00,17,12.10
2006,10,05,00,18,12.10
2006,10,05,00,19,12.10
2006,10,05,00,20,12.00
2006,10,05,00,21,12.00
2006,10,05,00,22,11.90
2006,10,05,00,23,11.90
2006,10,05,00,24,11.80
2006,10,05,00,25,11.80
2006,10,05,00,26,11.80
2006,10,05,00,27,11.70
2006,10,05,00,28,11.70
2006,10,05,00,29,11.60
2006,10,05,00,30,11.60
2006,10,05,00,31,11.50
2006,10,05,00,32,11.40
2006,10,05,00,33,11.40
2006,10,05,00,34,11.30
2006,10,05,00,35,11.30
2006,10,05,00,36,11.20
2006,10,05,00,37,11.20
2006,10,05,00,38,11.10
2006,10,05,00,39,11.10
2006,10,05,00,40,11.10
2006,10,05,00,41,11.00
2006,10,05,00,42,10.90
2006,10,05,00,43,10.90
2006,10,05,00,44,10.80
2006,10,05,00,45,10.80
2006,10,05,00,46,10.80
2006,10,05,00,47,10.80
2006,10,05,00,48,10.80
2006,10,05,00,49,10.70
2006,10,05,00,50,10.70
2006,10,05,00,51,10.70
2006,10,05,00,52,10.60
2006,10,05,00,53,10.60
2006,10,05,00,54,10.60
2006,10,05,00,55,10.60
2006,10,05,00,56,10.60
2006,10,05,00,57,10.60
2006,10,05,00,58,10.50
2006,10,05,00,59,10.40
2006,10,05,01,00,10.40
2006,10,05,01,01,10.50
2006,10,05,01,02,10.60
2006,10,05,01,03,10.60
2006,10,05,01,04,10.60
2006,10,05,01,05,10.60
2006,10,05,01,06,10.60
2006,10,05,01,07,10.60
2006,10,05,01,08,10.60
2006,10,05,01,09,10.60
2006,10,05,01,10,10.60
2006,10,05,01,11,10.60
2006,10,05,01,12,10.60
2006,10,05,01,13,10.60
2006,10,05,01,14,10.50
2006,10,05,01,15,10.40
2006,10,05,01,16,10.40
2006,10,05,01,17,10.40
2006,10,05,01,18,10.40
2006,10,05,01,19,10.40
2006,10,05,01,20,10.40
2006,10,05,01,21,10.40
2006,10,05,01,22,10.40
2006,10,05,01,23,10.40
2006,10,05,01,24,10.40
2006,10,05,01,25,10.30
2006,10,05,01,26,10.30
2006,10,05,01,27,10.30
2006,10,05,01,28,10.30
2006,10,05,01,29,10.20
2006,10,05,01,30,10.20
2006,10,05,01,31,10.20
2006,10,05,01,32,10.10
2006,10,05,01,33,10.10
2006,10,05,01,34,10.10
2006,10,05,01,35,10.10
2006,10,05,01,36,10.10
2006,10,05,01,37,9.90
2006,10,05,01,38,9.90
2006,10,05,01,39,9.90
2006,10,05,01,40,9.90
2006,10,05,01,41,9.90
2006,10,05,01,42,9.80
2006,10,05,01,43,9.80
2006,10,05,01,44,9.70
2006,10,05,01,45,9.70
2006,10,05,01,46,9.70
2006,10,05,01,47,9.70
2006,10,05,01,48,9.70
2006,10,05,01,49,9.70
2006,10,05,01,50,9.70
2006,10,05,01,51,9.70
2006,10,05,01,52,9.70
2006,10,05,01,53,9.70
2006,10,05,01,54,9.70
2006,10,05,01,55,9.70
2006,10,05,01,56,9.70
2006,10,05,01,57,9.70
2006,10,05,01,58,9.70
2006,10,05,01,59,9.70
2006,10,05,02,00,9.70
2006,10,05,02,01,9.80
2006,10,05,02,02,9.80
2006,10,05,02,03,9.80
2006,10,05,02,04,9.80
2006,10,05,02,05,9.80
2006,10,05,02,06,9.80
2006,10,05,02,07,9.80
2006,10,05,02,08,9.80
2006,10,05,02,09,9.80
2006,10,05,02,10,9.80
2006,10,05,02,11,9.80
2006,10,05,02,12,9.80
2006,10,05,02,13,9.80
2006,10,05,02,14,9.80
2006,10,05,02,15,9.80
2006,10,05,02,16,9.80
2006,10,05,02,17,9.80
2006,10,05,02,18,9.80
2006,10,05,02,19,9.80
2006,10,05,02,20,9.70
2006,10,05,02,21,9.70
2006,10,05,02,22,9.70
2006,10,05,02,23,9.70
2006,10,05,02,24,9.70
2006,10,05,02,25,9.60
2006,10,05,02,26,9.60
2006,10,05,02,27,9.60
2006,10,05,02,28,9.60
2006,10,05,02,29,9.60
2006,10,05,02,30,9.60
2006,10,05,02,31,9.60
2006,10,05,02,32,9.60
2006,10,05,02,33,9.60
2006,10,05,02,34,9.60
2006,10,05,02,35,9.50
2006,10,05,02,36,9.50
2006,10,05,02,37,9.40
2006,10,05,02,38,9.40
2006,10,05,02,39,9.30
2006,10,05,02,40,9.30
2006,10,05,02,41,9.30
2006,10,05,02,42,9.30
2006,10,05,02,43,9.40
2006,10,05,02,44,9.30
2006,10,05,02,45,9.30
2006,10,05,02,46,9.30
2006,10,05,02,47,9.30
2006,10,05,02,48,9.30
2006,10,05,02,49,9.30
2006,10,05,02,50,9.30
2006,10,05,02,51,9.30
2006,10,05,02,52,9.30
2006,10,05,02,53,9.30
2006,10,05,02,54,9.30
2006,10,05,02,55,9.30
2006,10,05,02,56,9.30
2006,10,05,02,57,9.30
2006,10,05,02,58,9.30
2006,10,05,02,59,9.30
2006,10,05,03,00,9.30
2006,10,05,03,01,9.30
2006,10,05,03,02,9.30
2006,10,05,03,03,9.30
2006,10,05,03,04,9.30
2006,10,05,03,05,9.30
2006,10,05,03,06,9.30
2006,10,05,03,07,9.30
2006,10,05,03,08,9.30
2006,10,05,03,09,9.30
2006,10,05,03,10,9.30
2006,10,05,03,11,9.40
2006,10,05,03,12,9.40
2006,10,05,03,13,9.30
2006,10,05,03,14,9.30
2006,10,05,03,15,9.30
2006,10,05,03,16,9.20
2006,10,05,03,17,9.20
2006,10,05,03,18,9.20
2006,10,05,03,19,9.20
2006,10,05,03,20,9.20
2006,10,05,03,21,9.10
2006,10,05,03,22,9.10
2006,10,05,03,23,9.10
2006,10,05,03,24,9.10
2006,10,05,03,25,9.10
2006,10,05,03,26,9.00
2006,10,05,03,27,9.00
2006,10,05,03,28,9.00
2006,10,05,03,29,9.00
2006,10,05,03,30,9.00
2006,10,05,03,31,9.00
2006,10,05,03,32,9.10
2006,10,05,03,33,9.10
2006,10,05,03,34,9.10
2006,10,05,03,35,9.10
2006,10,05,03,36,9.20
2006,10,05,03,37,9.20
2006,10,05,03,38,9.20
2006,10,05,03,39,9.20
2006,10,05,03,40,9.20
2006,10,05,03,41,9.20
2006,10,05,03,42,9.20
2006,10,05,03,43,9.20
2006,10,05,03,44,9.20
2006,10,05,03,45,9.20
2006,10,05,03,46,9.20
2006,10,05,03,47,9.20
2006,10,05,03,48,9.20
2006,10,05,03,49,9.20
2006,10,05,03,50,9.20
2006,10,05,03,51,9.20
2006,10,05,03,52,9.20
2006,10,05,03,53,9.20
2006,10,05,03,54,9.20
2006,10,05,03,55,9.20
2006,10,05,03,56,9.20
2006,10,05,03,57,9.20
2006,10,05,03,58,9.20
2006,10,05,03,59,9.20
2006,10,05,04,00,9.20
2006,10,05,04,01,9.20
2006,10,05,04,02,9.20
2006,10,05,04,03,9.30
2006,10,05,04,04,9.30
2006,10,05,04,05,9.40
2006,10,05,04,06,9.50
2006,10,05,04,07,9.50
2006,10,05,04,08,9.60
2006,10,05,04,09,9.70
2006,10,05,04,10,9.70
2006,10,05,04,11,9.70
2006,10,05,04,12,9.70
2006,10,05,04,13,9.80
2006,10,05,04,14,9.80
2006,10,05,04,15,9.80
2006,10,05,04,16,9.80
2006,10,05,04,17,9.80
2006,10,05,04,18,9.80
2006,10,05,04,19,9.90
2006,10,05,04,20,9.90
2006,10,05,04,21,9.90
2006,10,05,04,22,9.90
2006,10,05,04,23,9.80
2006,10,05,04,24,9.80
2006,10,05,04,25,9.80
2006,10,05,04,26,9.70
2006,10,05,04,27,9.70
2006,10,05,04,28,9.70
2006,10,05,04,29,9.70
2006,10,05,04,30,9.70
2006,10,05,04,31,9.70
2006,10,05,04,32,9.70
2006,10,05,04,33,9.70
2006,10,05,04,34,9.70
2006,10,05,04,35,9.70
2006,10,05,04,36,9.70
2006,10,05,04,37,9.70
2006,10,05,04,38,9.80
2006,10,05,04,39,9.80
2006,10,05,04,40,9.80
2006,10,05,04,41,9.80
2006,10,05,04,42,9.80
2006,10,05,04,43,9.80
2006,10,05,04,44,9.80
2006,10,05,04,45,9.80
2006,10,05,04,46,9.80
2006,10,05,04,47,9.80
2006,10,05,04,48,9.70
2006,10,05,04,49,9.70
2006,10,05,04,50,9.70
2006,10,05,04,51,9.70
2006,10,05,04,52,9.70
2006,10,05,04,53,9.70
2006,10,05,04,54,9.60
2006,10,05,04,55,9.60
2006,10,05,04,56,9.60
2006,10,05,04,57,9.50
2006,10,05,04,58,9.50
2006,10,05,04,59,9.40
2006,10,05,05,00,9.40
2006,10,05,05,01,9.30
2006,10,05,05,02,9.30
2006,10,05,05,03,9.30
2006,10,05,05,04,9.20
2006,10,05,05,05,9.20
2006,10,05,05,06,9.10
2006,10,05,05,07,9.00
2006,10,05,05,08,8.90
2006,10,05,05,09,8.90
2006,10,05,05,10,8.80
2006,10,05,05,11,8.80
2006,10,05,05,12,8.80
2006,10,05,05,13,8.70
2006,10,05,05,14,8.70
2006,10,05,05,15,8.70
2006,10,05,05,16,8.70
2006,10,05,05,17,8.70
2006,10,05,05,18,8.70
2006,10,05,05,19,8.70
2006,10,05,05,20,8.70
2006,10,05,05,21,8.70
2006,10,05,05,22,8.70
2006,10,05,05,23,8.70
2006,10,05,05,24,8.70
2006,10,05,05,25,8.70
2006,10,05,05,26,8.70
2006,10,05,05,27,8.70
2006,10,05,05,28,8.70
2006,10,05,05,29,8.70
2006,10,05,05,30,8.80
2006,10,05,05,31,8.90
2006,10,05,05,32,9.00
2006,10,05,05,33,9.10
2006,10,05,05,34,9.20
2006,10,05,05,35,9.20
2006,10,05,05,36,9.20
2006,10,05,05,37,9.30
2006,10,05,05,38,9.30
2006,10,05,05,39,9.40
2006,10,05,05,40,9.40
2006,10,05,05,41,9.50
2006,10,05,05,42,9.50
2006,10,05,05,43,9.50
2006,10,05,05,44,9.50
2006,10,05,05,45,9.50
2006,10,05,05,46,9.40
2006,10,05,05,47,9.40
2006,10,05,05,48,9.40
2006,10,05,05,49,9.30
2006,10,05,05,50,9.30
2006,10,05,05,51,9.30
2006,10,05,05,52,9.20
2006,10,05,05,53,9.20
2006,10,05,05,54,9.20
2006,10,05,05,55,9.20
2006,10,05,05,56,9.20
2006,10,05,05,57,9.20
2006,10,05,05,58,9.10
2006,10,05,05,59,9.10
2006,10,05,06,00,9.10
2006,10,05,06,01,9.10
2006,10,05,06,02,9.10
2006,10,05,06,03,9.00
2006,10,05,06,04,9.00
2006,10,05,06,05,8.90
2006,10,05,06,06,8.90
2006,10,05,06,07,8.90
2006,10,05,06,08,8.90
2006,10,05,06,09,8.80
2006,10,05,06,10,8.80
2006,10,05,06,11,8.80
2006,10,05,06,12,8.80
2006,10,05,06,13,8.80
2006,10,05,06,14,8.80
2006,10,05,06,15,8.80
2006,10,05,06,16,8.80
2006,10,05,06,17,8.80
2006,10,05,06,18,8.80
2006,10,05,06,19,8.80
2006,10,05,06,20,8.70
2006,10,05,06,21,8.70
2006,10,05,06,22,8.70
2006,10,05,06,23,8.70
2006,10,05,06,24,8.70
2006,10,05,06,25,8.70
2006,10,05,06,26,8.70
2006,10,05,06,27,8.70
2006,10,05,06,28,8.80
2006,10,05,06,29,8.80
2006,10,05,06,30,8.80
2006,10,05,06,31,8.80
2006,10,05,06,32,8.80
2006,10,05,06,33,8.70
2006,10,05,06,34,8.70
2006,10,05,06,35,8.70
2006,10,05,06,36,8.70
2006,10,05,06,37,8.70
2006,10,05,06,38,8.70
2006,10,05,06,39,8.60
2006,10,05,06,40,8.60
2006,10,05,06,41,8.60
2006,10,05,06,42,8.60
2006,10,05,06,43,8.60
2006,10,05,06,44,8.60
2006,10,05,06,45,8.60
2006,10,05,06,46,8.60
2006,10,05,06,47,8.60
2006,10,05,06,48,8.60
2006,10,05,06,49,8.60
2006,10,05,06,50,8.60
2006,10,05,06,51,8.60
2006,10,05,06,52,8.70
2006,10,05,06,53,8.70
2006,10,05,06,54,8.70
2006,10,05,06,55,8.70
2006,10,05,06,56,8.80
2006,10,05,06,57,8.90
2006,10,05,06,58,8.90
2006,10,05,06,59,8.90
2006,10,05,07,00,9.00
2006,10,05,07,01,9.00
2006,10,05,07,02,9.00
2006,10,05,07,03,9.00
2006,10,05,07,04,9.00
2006,10,05,07,05,9.00
2006,10,05,07,06,9.00
2006,10,05,07,07,9.00
2006,10,05,07,08,9.00
2006,10,05,07,09,9.00
2006,10,05,07,10,9.00
2006,10,05,07,11,9.00
2006,10,05,07,12,9.10
2006,10,05,07,13,9.10
2006,10,05,07,14,9.10
2006,10,05,07,15,9.10
2006,10,05,07,16,9.10
2006,10,05,07,17,9.10
2006,10,05,07,18,9.00
2006,10,05,07,19,9.00
2006,10,05,07,20,9.00
2006,10,05,07,21,9.00
2006,10,05,07,22,9.00
2006,10,05,07,23,8.90
2006,10,05,07,24,8.90
2006,10,05,07,25,8.90
2006,10,05,07,26,8.80
2006,10,05,07,27,8.80
2006,10,05,07,28,8.80
2006,10,05,07,29,8.80
2006,10,05,07,30,8.80
2006,10,05,07,31,8.80
2006,10,05,07,32,8.70
2006,10,05,07,33,8.70
2006,10,05,07,34,8.70
2006,10,05,07,35,8.70
2006,10,05,07,36,8.80
2006,10,05,07,37,8.90
2006,10,05,07,38,9.00
2006,10,05,07,39,9.00
2006,10,05,07,40,9.10
2006,10,05,07,41,9.10
2006,10,05,07,42,9.20
2006,10,05,07,43,9.20
2006,10,05,07,44,9.30
2006,10,05,07,45,9.40
2006,10,05,07,46,9.40
2006,10,05,07,47,9.50
2006,10,05,07,48,9.60
2006,10,05,07,49,9.60
2006,10,05,07,50,9.70
2006,10,05,07,51,9.70
2006,10,05,07,52,9.70
2006,10,05,07,53,9.80
2006,10,05,07,54,9.90
2006,10,05,07,55,9.90
2006,10,05,07,56,9.90
2006,10,05,07,57,9.90
2006,10,05,07,58,10.00
2006,10,05,07,59,10.10
2006,10,05,08,00,10.10
2006,10,05,08,01,10.10
2006,10,05,08,02,10.10
2006,10,05,08,03,10.20
2006,10,05,08,04,10.20
2006,10,05,08,05,10.30
2006,10,05,08,06,10.30
2006,10,05,08,07,10.40
2006,10,05,08,08,10.40
2006,10,05,08,09,10.40
2006,10,05,08,10,10.40
2006,10,05,08,11,10.50
2006,10,05,08,12,10.60
2006,10,05,08,13,10.60
2006,10,05,08,14,10.60
2006,10,05,08,15,10.60
2006,10,05,08,16,10.70
2006,10,05,08,17,10.70
2006,10,05,08,18,10.70
2006,10,05,08,19,10.80
2006,10,05,08,20,10.80
2006,10,05,08,21,10.90
2006,10,05,08,22,10.90
2006,10,05,08,23,10.90
2006,10,05,08,24,11.10
2006,10,05,08,25,11.10
2006,10,05,08,26,11.10
2006,10,05,08,27,11.10
2006,10,05,08,28,11.10
2006,10,05,08,29,11.10
2006,10,05,08,30,11.10
2006,10,05,08,31,11.10
2006,10,05,08,32,11.10
2006,10,05,08,33,11.10
2006,10,05,08,34,11.10
2006,10,05,08,35,11.10
2006,10,05,08,36,11.10
2006,10,05,08,37,11.10
2006,10,05,08,38,11.10
2006,10,05,08,39,11.10
2006,10,05,08,40,11.10
2006,10,05,08,41,11.10
2006,10,05,08,42,11.20
2006,10,05,08,43,11.20
2006,10,05,08,44,11.30
2006,10,05,08,45,11.30
2006,10,05,08,46,11.30
2006,10,05,08,47,11.40
2006,10,05,08,48,11.40
2006,10,05,08,49,11.40
2006,10,05,08,50,11.50
2006,10,05,08,51,11.60
2006,10,05,08,52,11.60
2006,10,05,08,53,11.60
2006,10,05,08,54,11.70
2006,10,05,08,55,11.70
2006,10,05,08,56,11.70
2006,10,05,08,57,11.70
2006,10,05,08,58,11.70
2006,10,05,08,59,11.70
2006,10,05,09,00,11.70
2006,10,05,09,01,11.70
2006,10,05,09,02,11.70
2006,10,05,09,03,11.70
2006,10,05,09,04,11.70
2006,10,05,09,05,11.70
2006,10,05,09,06,11.70
2006,10,05,09,07,11.60
2006,10,05,09,08,11.60
2006,10,05,09,09,11.60
2006,10,05,09,10,11.60
2006,10,05,09,11,11.70
2006,10,05,09,12,11.70
2006,10,05,09,13,11.80
2006,10,05,09,14,11.80
2006,10,05,09,15,11.80
2006,10,05,09,16,11.90
2006,10,05,09,17,12.00
2006,10,05,09,18,12.00
2006,10,05,09,19,12.10
2006,10,05,09,20,12.20
2006,10,05,09,21,12.30
2006,10,05,09,22,12.40
2006,10,05,09,23,12.50
2006,10,05,09,24,12.60
2006,10,05,09,25,12.60
2006,10,05,09,26,12.70
2006,10,05,09,27,12.80
2006,10,05,09,28,12.80
2006,10,05,09,29,12.80
2006,10,05,09,30,12.80
2006,10,05,09,31,12.80
2006,10,05,09,32,12.70
2006,10,05,09,33,12.60
2006,10,05,09,34,12.60
2006,10,05,09,35,12.50
2006,10,05,09,36,12.40
2006,10,05,09,37,12.30
2006,10,05,09,38,12.30
2006,10,05,09,39,12.20
2006,10,05,09,40,12.20
2006,10,05,09,41,12.20
2006,10,05,09,42,12.20
2006,10,05,09,43,12.20
2006,10,05,09,44,12.20
2006,10,05,09,45,12.20
2006,10,05,09,46,12.20
2006,10,05,09,47,12.20
2006,10,05,09,48,12.30
2006,10,05,09,49,12.30
2006,10,05,09,50,12.30
2006,10,05,09,51,12.30
2006,10,05,09,52,12.30
2006,10,05,09,53,12.40
2006,10,05,09,54,12.50
2006,10,05,09,55,12.50
2006,10,05,09,56,12.70
2006,10,05,09,57,12.80
2006,10,05,09,58,12.90
2006,10,05,09,59,13.00
2006,10,05,10,00,13.00
2006,10,05,10,01,13.10
2006,10,05,10,02,13.20
2006,10,05,10,03,13.20
2006,10,05,10,04,13.30
2006,10,05,10,05,13.40
2006,10,05,10,06,13.50
2006,10,05,10,07,13.60
2006,10,05,10,08,13.60
2006,10,05,10,09,13.70
2006,10,05,10,10,13.70
2006,10,05,10,11,13.70
2006,10,05,10,12,13.70
2006,10,05,10,13,13.70
2006,10,05,10,14,13.70
2006,10,05,10,15,13.60
2006,10,05,10,16,13.60
2006,10,05,10,17,13.50
2006,10,05,10,18,13.40
2006,10,05,10,19,13.40
2006,10,05,10,20,13.40
2006,10,05,10,21,13.30
2006,10,05,10,22,13.30
2006,10,05,10,23,13.20
2006,10,05,10,24,13.20
2006,10,05,10,25,13.20
2006,10,05,10,26,13.20
2006,10,05,10,27,13.20
2006,10,05,10,28,13.20
2006,10,05,10,29,13.30
2006,10,05,10,30,13.30
2006,10,05,10,31,13.30
2006,10,05,10,32,13.30
2006,10,05,10,33,13.20
2006,10,05,10,34,13.20
2006,10,05,10,35,13.20
2006,10,05,10,36,13.20
2006,10,05,10,37,13.30
2006,10,05,10,38,13.30
2006,10,05,10,39,13.30
2006,10,05,10,40,13.30
2006,10,05,10,41,13.30
2006,10,05,10,42,13.30
2006,10,05,10,43,13.20
2006,10,05,10,44,13.10
2006,10,05,10,45,13.10
2006,10,05,10,46,13.00
2006,10,05,10,47,13.00
2006,10,05,10,48,13.00
2006,10,05,10,49,13.10
2006,10,05,10,50,13.10
2006,10,05,10,51,13.10
2006,10,05,10,52,13.10
2006,10,05,10,53,13.10
2006,10,05,10,54,13.10
2006,10,05,10,55,13.10
2006,10,05,10,56,13.10
2006,10,05,10,57,13.20
2006,10,05,10,58,13.20
2006,10,05,10,59,13.20
2006,10,05,11,00,13.30
2006,10,05,11,01,13.30
2006,10,05,11,02,13.30
2006,10,05,11,03,13.40
2006,10,05,11,04,13.40
2006,10,05,11,05,13.40
2006,10,05,11,06,13.40
2006,10,05,11,07,13.40
2006,10,05,11,08,13.40
2006,10,05,11,09,13.30
2006,10,05,11,10,13.30
2006,10,05,11,11,13.30
2006,10,05,11,12,13.20
2006,10,05,11,13,13.30
2006,10,05,11,14,13.30
2006,10,05,11,15,13.20
2006,10,05,11,16,13.20
2006,10,05,11,17,13.20
2006,10,05,11,18,13.30
2006,10,05,11,19,13.30
2006,10,05,11,20,13.30
2006,10,05,11,21,13.30
2006,10,05,11,22,13.30
2006,10,05,11,23,13.30
2006,10,05,11,24,13.30
2006,10,05,11,25,13.40
2006,10,05,11,26,13.40
2006,10,05,11,27,13.30
2006,10,05,11,28,13.40
2006,10,05,11,29,13.40
2006,10,05,11,30,13.50
2006,10,05,11,31,13.50
2006,10,05,11,32,13.50
2006,10,05,11,33,13.50
2006,10,05,11,34,13.50
2006,10,05,11,35,13.50
2006,10,05,11,36,13.60
2006,10,05,11,37,13.70
2006,10,05,11,38,13.70
2006,10,05,11,39,13.80
2006,10,05,11,40,13.80
2006,10,05,11,41,13.80
2006,10,05,11,42,13.80
2006,10,05,11,43,13.90
2006,10,05,11,44,13.90
2006,10,05,11,45,13.90
2006,10,05,11,46,14.00
2006,10,05,11,47,14.00
2006,10,05,11,48,14.00
2006,10,05,11,49,14.00
2006,10,05,11,50,14.00
2006,10,05,11,51,13.90
2006,10,05,11,52,13.90
2006,10,05,11,53,13.90
2006,10,05,11,54,13.80
2006,10,05,11,55,13.80
2006,10,05,11,56,13.70
2006,10,05,11,57,13.70
2006,10,05,11,58,13.70
2006,10,05,11,59,13.70
2006,10,05,12,00,13.70
2006,10,05,12,01,13.80
2006,10,05,12,02,13.80
2006,10,05,12,03,13.90
2006,10,05,12,04,14.00
2006,10,05,12,05,14.00
2006,10,05,12,06,14.20
2006,10,05,12,07,14.40
2006,10,05,12,08,14.50
2006,10,05,12,09,14.60
2006,10,05,12,10,14.60
2006,10,05,12,11,14.60
2006,10,05,12,12,14.70
2006,10,05,12,13,14.70
2006,10,05,12,14,14.80
2006,10,05,12,15,14.80
2006,10,05,12,16,14.80
2006,10,05,12,17,14.70
2006,10,05,12,18,14.60
2006,10,05,12,19,14.50
2006,10,05,12,20,14.50
2006,10,05,12,21,14.40
2006,10,05,12,22,14.30
2006,10,05,12,23,14.20
2006,10,05,12,24,14.20
2006,10,05,12,25,14.20
2006,10,05,12,26,14.20
2006,10,05,12,27,14.20
2006,10,05,12,28,14.20
2006,10,05,12,29,14.20
2006,10,05,12,30,14.20
2006,10,05,12,31,14.20
2006,10,05,12,32,14.30
2006,10,05,12,33,14.40
2006,10,05,12,34,14.50
2006,10,05,12,35,14.50
2006,10,05,12,36,14.50
2006,10,05,12,37,14.50
2006,10,05,12,38,14.50
2006,10,05,12,39,14.40
2006,10,05,12,40,14.30
2006,10,05,12,41,14.30
2006,10,05,12,42,14.20
2006,10,05,12,43,14.20
2006,10,05,12,44,14.10
2006,10,05,12,45,14.00
2006,10,05,12,46,14.00
2006,10,05,12,47,14.00
2006,10,05,12,48,13.90
2006,10,05,12,49,13.80
2006,10,05,12,50,13.80
2006,10,05,12,51,13.80
2006,10,05,12,52,13.80
2006,10,05,12,53,13.90
2006,10,05,12,54,14.00
2006,10,05,12,55,14.20
2006,10,05,12,56,14.20
2006,10,05,12,57,14.20
2006,10,05,12,58,14.20
2006,10,05,12,59,14.20
2006,10,05,13,00,14.10
2006,10,05,13,01,14.10
2006,10,05,13,02,14.00
2006,10,05,13,03,13.90
2006,10,05,13,04,13.80
2006,10,05,13,05,13.70
2006,10,05,13,06,13.70
2006,10,05,13,07,13.70
2006,10,05,13,08,13.80
2006,10,05,13,09,13.80
2006,10,05,13,10,13.80
2006,10,05,13,11,13.80
2006,10,05,13,12,13.80
2006,10,05,13,13,13.70
2006,10,05,13,14,13.70
2006,10,05,13,15,13.80
2006,10,05,13,16,13.90
2006,10,05,13,17,14.00
2006,10,05,13,18,14.10
2006,10,05,13,19,14.20
2006,10,05,13,20,14.20
2006,10,05,13,21,14.20
2006,10,05,13,22,14.20
2006,10,05,13,23,14.20
2006,10,05,13,24,14.20
2006,10,05,13,25,14.30
2006,10,05,13,26,14.40
2006,10,05,13,27,14.40
2006,10,05,13,28,14.50
2006,10,05,13,29,14.50
2006,10,05,13,30,14.60
2006,10,05,13,31,14.40
2006,10,05,13,32,14.30
2006,10,05,13,33,14.20
2006,10,05,13,34,14.20
2006,10,05,13,35,14.20
2006,10,05,13,36,14.20
2006,10,05,13,37,14.20
2006,10,05,13,38,14.20
2006,10,05,13,39,14.20
2006,10,05,13,40,14.20
2006,10,05,13,41,14.30
2006,10,05,13,42,14.30
2006,10,05,13,43,14.40
2006,10,05,13,44,14.50
2006,10,05,13,45,14.50
2006,10,05,13,46,14.50
2006,10,05,13,47,14.50
2006,10,05,13,48,14.60
2006,10,05,13,49,14.70
2006,10,05,13,50,14.80
2006,10,05,13,51,14.90
2006,10,05,13,52,15.00
2006,10,05,13,53,15.00
2006,10,05,13,54,15.00
2006,10,05,13,55,15.10
2006,10,05,13,56,15.10
2006,10,05,13,57,15.20
2006,10,05,13,58,15.20
2006,10,05,13,59,15.20
2006,10,05,14,00,15.30
2006,10,05,14,01,15.30
2006,10,05,14,02,15.50
2006,10,05,14,03,15.50
2006,10,05,14,04,15.60
2006,10,05,14,05,15.60
2006,10,05,14,06,15.60
2006,10,05,14,07,15.60
2006,10,05,14,08,15.70
2006,10,05,14,09,15.70
2006,10,05,14,10,15.80
2006,10,05,14,11,15.80
2006,10,05,14,12,15.90
2006,10,05,14,13,15.90
2006,10,05,14,14,15.90
2006,10,05,14,15,15.80
2006,10,05,14,16,15.80
2006,10,05,14,17,15.80
2006,10,05,14,18,15.80
2006,10,05,14,19,15.70
2006,10,05,14,20,15.60
2006,10,05,14,21,15.60
2006,10,05,14,22,15.60
2006,10,05,14,23,15.50
2006,10,05,14,24,15.50
2006,10,05,14,25,15.40
2006,10,05,14,26,15.50
2006,10,05,14,27,15.50
2006,10,05,14,28,15.60
2006,10,05,14,29,15.50
2006,10,05,14,30,15.50
2006,10,05,14,31,15.30
2006,10,05,14,32,15.40
2006,10,05,14,33,15.40
2006,10,05,14,34,15.40
2006,10,05,14,35,15.40
2006,10,05,14,36,15.50
2006,10,05,14,37,15.50
2006,10,05,14,38,15.60
2006,10,05,14,39,15.60
2006,10,05,14,40,15.60
2006,10,05,14,41,15.70
2006,10,05,14,42,15.80
2006,10,05,14,43,15.80
2006,10,05,14,44,15.70
2006,10,05,14,45,15.70
2006,10,05,14,46,15.70
2006,10,05,14,47,15.70
2006,10,05,14,48,15.70
2006,10,05,14,49,15.60
2006,10,05,14,50,15.60
2006,10,05,14,51,15.50
2006,10,05,14,52,15.40
2006,10,05,14,53,15.40
2006,10,05,14,54,15.30
2006,10,05,14,55,15.30
2006,10,05,14,56,15.30
2006,10,05,14,57,15.30
2006,10,05,14,58,15.30
2006,10,05,14,59,15.30
2006,10,05,15,00,15.30
2006,10,05,15,01,15.30
2006,10,05,15,02,15.30
2006,10,05,15,03,15.30
2006,10,05,15,04,15.30
2006,10,05,15,05,15.30
2006,10,05,15,06,15.30
2006,10,05,15,07,15.30
2006,10,05,15,08,15.30
2006,10,05,15,09,15.30
2006,10,05,15,10,15.40
2006,10,05,15,11,15.40
2006,10,05,15,12,15.40
2006,10,05,15,13,15.40
2006,10,05,15,14,15.30
2006,10,05,15,15,15.30
2006,10,05,15,16,15.20
2006,10,05,15,17,15.10
2006,10,05,15,18,15.10
2006,10,05,15,19,15.00
2006,10,05,15,20,14.90
2006,10,05,15,21,14.80
2006,10,05,15,22,14.80
2006,10,05,15,23,14.80
2006,10,05,15,24,14.80
2006,10,05,15,25,14.80
2006,10,05,15,26,14.70
2006,10,05,15,27,14.60
2006,10,05,15,28,14.60
2006,10,05,15,29,14.50
2006,10,05,15,30,14.40
2006,10,05,15,31,14.30
2006,10,05,15,32,14.20
2006,10,05,15,33,14.20
2006,10,05,15,34,14.20
2006,10,05,15,35,14.20
2006,10,05,15,36,14.20
2006,10,05,15,37,14.20
2006,10,05,15,38,14.20
2006,10,05,15,39,14.20
2006,10,05,15,40,14.20
2006,10,05,15,41,14.20
2006,10,05,15,42,14.20
2006,10,05,15,43,14.20
2006,10,05,15,44,14.30
2006,10,05,15,45,14.30
2006,10,05,15,46,14.30
2006,10,05,15,47,14.30
2006,10,05,15,48,14.30
2006,10,05,15,49,14.30
2006,10,05,15,50,14.30
2006,10,05,15,51,14.30
2006,10,05,15,52,14.20
2006,10,05,15,53,14.20
2006,10,05,15,54,14.10
2006,10,05,15,55,14.00
2006,10,05,15,56,14.00
2006,10,05,15,57,14.00
2006,10,05,15,58,13.90
2006,10,05,15,59,13.90
2006,10,05,16,00,13.80
2006,10,05,16,01,13.80
2006,10,05,16,02,13.80
2006,10,05,16,03,13.80
2006,10,05,16,04,13.80
2006,10,05,16,05,13.70
2006,10,05,16,06,13.70
2006,10,05,16,07,13.70
2006,10,05,16,08,13.70
2006,10,05,16,09,13.70
2006,10,05,16,10,13.70
2006,10,05,16,11,13.70
2006,10,05,16,12,13.60
2006,10,05,16,13,13.60
2006,10,05,16,14,13.60
2006,10,05,16,15,13.60
2006,10,05,16,16,13.60
2006,10,05,16,17,13.60
2006,10,05,16,18,13.70
2006,10,05,16,19,13.70
2006,10,05,16,20,13.80
2006,10,05,16,21,13.80
2006,10,05,16,22,13.90
2006,10,05,16,23,13.90
2006,10,05,16,24,14.00
2006,10,05,16,25,14.10
2006,10,05,16,26,14.20
2006,10,05,16,27,14.20
2006,10,05,16,28,14.30
2006,10,05,16,29,14.40
2006,10,05,16,30,14.50
2006,10,05,16,31,14.50
2006,10,05,16,32,14.60
2006,10,05,16,33,14.60
2006,10,05,16,34,14.70
2006,10,05,16,35,14.80
2006,10,05,16,36,14.80
2006,10,05,16,37,14.80
2006,10,05,16,38,14.90
2006,10,05,16,39,14.90
2006,10,05,16,40,14.90
2006,10,05,16,41,14.90
2006,10,05,16,42,14.90
2006,10,05,16,43,14.90
2006,10,05,16,44,14.90
2006,10,05,16,45,14.90
2006,10,05,16,46,14.90
2006,10,05,16,47,14.90
2006,10,05,16,48,14.80
2006,10,05,16,49,14.80
2006,10,05,16,50,14.80
2006,10,05,16,51,14.80
2006,10,05,16,52,14.80
2006,10,05,16,53,14.80
2006,10,05,16,54,14.80
2006,10,05,16,55,14.80
2006,10,05,16,56,14.80
2006,10,05,16,57,14.80
2006,10,05,16,58,14.80
2006,10,05,16,59,14.80
2006,10,05,17,00,14.80
2006,10,05,17,01,14.80
2006,10,05,17,02,14.80
2006,10,05,17,03,14.80
2006,10,05,17,04,14.80
2006,10,05,17,05,14.80
2006,10,05,17,06,14.80
2006,10,05,17,07,14.80
2006,10,05,17,08,14.80
2006,10,05,17,09,14.80
2006,10,05,17,10,14.80
2006,10,05,17,11,14.70
2006,10,05,17,12,14.70
2006,10,05,17,13,14.70
2006,10,05,17,14,14.70
2006,10,05,17,15,14.60
2006,10,05,17,16,14.60
2006,10,05,17,17,14.60
2006,10,05,17,18,14.60
2006,10,05,17,19,14.50
2006,10,05,17,20,14.50
2006,10,05,17,21,14.50
2006,10,05,17,22,14.50
2006,10,05,17,23,14.40
2006,10,05,17,24,14.40
2006,10,05,17,25,14.40
2006,10,05,17,26,14.40
2006,10,05,17,27,14.40
2006,10,05,17,28,14.30
2006,10,05,17,29,14.30
2006,10,05,17,30,14.30
2006,10,05,17,31,14.30
2006,10,05,17,32,14.20
2006,10,05,17,33,14.20
2006,10,05,17,34,14.20
2006,10,05,17,35,14.20
2006,10,05,17,36,14.20